User: anonymous
Location: Frydek-Mistek
(49.6830°N, 18.3330°E)
Time: 16:03:24
(UTC+02:00)
Language:

Courier 1B Rocket - Orbit

View from above orbital plane
View from above orbital plane
View from above satellite
View from above satellite

Ground track
Ground track

The orbit data is extracted from the following two-line orbital elements,

1 00059U 60013B   14237.43991965  .00000113  00000-0  34344-4 0  9501
2 00059 028.2492 323.1452 0189288 107.8938 254.2343 13.52896006659390
Epoch (UTC): 25 August 2014 10:33:29
Eccentricity: 0.0189288
inclination: 28.2492°
perigee height: 921 km
apogee height: 1202 km
right ascension of ascending node: 323.1452°
argument of perigee: 107.8938°
revolutions per day: 13.52896006
mean anomaly at epoch: 254.2343°
orbit number at epoch: 65939

The dashed part of the orbit path shows where the satellite is in the earth's shadow,  

DLR